Location: *
(46.1866°S, 178.5290°W)
Time: 12:50:33
(UTC+00:00)

Cosmos 1689 Rocket - Pass Details

Date: 19 May 2021
Orbit: 344 x 355 km, 97.5° (Epoch: 13 June)

Event Time Altitude Azimuth Distance (km) Brightness Sun altitude
Rises 05:40:55 0° 34° (NE) 2,188 5.7 -12.5°
Reaches altitude 10° 05:42:56 10° 45° (NE) 1,354 4.5 -12.9°
Maximum altitude 05:45:32 31° 109° (ESE) 685 2.7 -13.3°
Drops below altitude 10° 05:48:11 10° 173° (S) 1,382 4.7 -13.8°
Sets 05:50:16 0° 183° (S) 2,243 5.8 -14.1°
